User: anonymous   Login
Location: Newark
(20.1200°S, 168.9600°E)
Time: 03:29:27
(UTC+00:00)
Language:

Gurwin Techsat 1B - Orbit

View from above orbital plane
View from above orbital plane
View from above satellite
View from above satellite

Ground track
Ground track

The orbit data is extracted from the following two-line orbital elements,

1 25397U 98043D   20021.36504559 -.00000029  00000-0  65267-5 0  9995
2 25397  98.7135 324.1153 0002225 109.8537 250.2881 14.23677992118707
Epoch (UTC): 21 January 2020 08:45:39
Eccentricity: 0.0002225
inclination: 98.7135°
perigee height: 811 km
apogee height: 814 km
right ascension of ascending node: 324.1153°
argument of perigee: 109.8537°
revolutions per day: 14.23677992
mean anomaly at epoch: 250.2881°
orbit number at epoch: 11870

The dashed part of the orbit path shows where the satellite is in the earth's shadow,  

DLR